| time (UTC) | temp F | wind direction | speed MPH | gust MPH | rain 1hr in | rain 24hr in | rain mn in | humidity % | barometer mb |
| 20260509090035 | 69 | 345 | 8.0 | 14.0 | 0.00 | 0.11 | 0.00 | 89 | 1007.7 |
| 20260509085517 | 69 | 11 | 5.0 | 14.0 | 0.00 | 0.11 | 0.00 | 88 | 1007.7 |
| 20260509085016 | 69 | 325 | 7.0 | 14.0 | 0.00 | 0.11 | 0.00 | 87 | 1007.7 |
| 20260509084539 | 70 | 329 | 5.0 | 12.0 | 0.00 | 0.11 | 0.00 | 85 | 1007.7 |
| 20260509084016 | 70 | 5 | 3.0 | 11.0 | 0.00 | 0.11 | 0.00 | 84 | 1007.6 |
| 20260509083521 | 70 | 254 | 5.0 | 14.0 | 0.00 | 0.11 | 0.00 | 83 | 1007.5 |
| 20260509083043 | 70 | 261 | 7.0 | 14.0 | 0.00 | 0.11 | 0.00 | 82 | 1007.6 |
| 20260509082516 | 70 | 279 | 8.0 | 14.0 | 0.00 | 0.11 | 0.00 | 82 | 1007.7 |
| 20260509082016 | 69 | 271 | 5.0 | 13.0 | 0.00 | 0.11 | 0.00 | 83 | 1007.6 |
| 20260509081542 | 69 | 290 | 2.0 | 8.0 | 0.00 | 0.11 | 0.00 | 85 | 1007.6 |
| 20260509081021 | 69 | 305 | 2.0 | 4.0 | 0.00 | 0.11 | 0.00 | 85 | 1007.2 |
| 20260509080516 | 69 | 0 | 0.0 | 3.0 | 0.00 | 0.11 | 0.00 | 85 | 1006.7 |
| 20260509080036 | 69 | 0 | 0.0 | 5.0 | 0.00 | 0.11 | 0.00 | 85 | 1006.6 |
| 20260509075517 | 69 | 0 | 0.0 | 5.0 | 0.00 | 0.11 | 0.00 | 86 | 1006.5 |
| 20260509075016 | 69 | 131 | 0.0 | 6.0 | 0.00 | 0.11 | 0.00 | 87 | 1006.6 |
| 20260509074535 | 69 | 0 | 1.0 | 13.0 | 0.00 | 0.11 | 0.00 | 88 | 1006.6 |
| 20260509074016 | 69 | 111 | 3.0 | 17.0 | 0.00 | 0.11 | 0.00 | 89 | 1006.7 |
| 20260509073516 | 69 | 154 | 5.0 | 17.0 | 0.00 | 0.11 | 0.00 | 90 | 1007.2 |
| 20260509073037 | 69 | 175 | 7.0 | 17.0 | 0.00 | 0.11 | 0.00 | 90 | 1007.6 |
| 20260509072525 | 69 | 157 | 7.0 | 13.0 | 0.00 | 0.11 | 0.00 | 91 | 1008.0 |
| 20260509072022 | 69 | 150 | 7.0 | 14.0 | 0.00 | 0.11 | 0.00 | 92 | 1008.3 |
| 20260509071538 | 68 | 121 | 5.0 | 14.0 | 0.00 | 0.11 | 0.00 | 92 | 1008.8 |
| 20260509071020 | 68 | 115 | 4.0 | 13.0 | 0.00 | 0.11 | 0.00 | 92 | 1009.2 |
| 20260509070516 | 68 | 182 | 5.0 | 13.0 | 0.00 | 0.11 | 0.00 | 92 | 1009.5 |
| 20260509070036 | 68 | 156 | 6.0 | 12.0 | 0.00 | 0.11 | 0.00 | 92 | 1009.3 |
| 20260509065515 | 68 | 155 | 6.0 | 12.0 | 0.00 | 0.11 | 0.00 | 92 | 1009.5 |
| 20260509065024 | 68 | 138 | 5.0 | 10.0 | 0.00 | 0.11 | 0.00 | 93 | 1009.8 |
| 20260509064541 | 67 | 144 | 4.0 | 8.0 | 0.00 | 0.11 | 0.00 | 93 | 1010.1 |
| 20260509064022 | 67 | 161 | 2.0 | 5.0 | 0.00 | 0.11 | 0.00 | 93 | 1010.3 |
| 20260509063516 | 67 | 0 | 1.0 | 6.0 | 0.00 | 0.11 | 0.00 | 93 | 1010.4 |
| 20260509063035 | 66 | 159 | 1.0 | 7.0 | 0.00 | 0.11 | 0.00 | 92 | 1010.4 |
| 20260509062516 | 66 | 0 | 2.0 | 7.0 | 0.00 | 0.11 | 0.00 | 92 | 1010.5 |
| 20260509062017 | 66 | 156 | 0.0 | 2.0 | 0.00 | 0.11 | 0.00 | 92 | 1010.6 |
| 20260509061537 | 66 | 0 | 0.0 | 0.0 | 0.00 | 0.11 | 0.00 | 93 | 1011.0 |
| 20260509061016 | 66 | 0 | 0.0 | 0.0 | 0.00 | 0.11 | 0.00 | 92 | 1011.1 |
| 20260509060517 | 66 | 0 | 0.0 | 2.0 | 0.00 | 0.11 | 0.00 | 92 | 1011.1 |
| 20260509060036 | 66 | 0 | 0.0 | 2.0 | 0.00 | 0.11 | 0.00 | 92 | 1011.1 |
| 20260509055516 | 66 | 0 | 0.0 | 4.0 | 0.00 | 0.11 | 0.00 | 92 | 1011.0 |
| 20260509055016 | 66 | 0 | 1.0 | 4.0 | 0.00 | 0.11 | 0.00 | 91 | 1010.9 |
| 20260509054542 | 66 | 163 | 0.0 | 4.0 | 0.00 | 0.11 | 0.00 | 91 | 1011.0 |
| 20260509054018 | 66 | 0 | 0.0 | 4.0 | 0.00 | 0.11 | 0.00 | 90 | 1011.1 |
| 20260509053521 | 66 | 163 | 0.0 | 4.0 | 0.00 | 0.11 | 0.00 | 90 | 1010.8 |
| 20260509053115 | 67 | 0 | 0.0 | 0.0 | 0.00 | 0.11 | 0.00 | 89 | 1010.7 |
| 20260509052520 | 67 | 0 | 0.0 | 2.0 | 0.00 | 0.11 | 0.00 | 89 | 1010.6 |
| 20260509052015 | 67 | 0 | 0.0 | 2.0 | 0.00 | 0.11 | 0.00 | 89 | 1010.7 |
| 20260509051542 | 68 | 0 | 1.0 | 3.0 | 0.00 | 0.11 | 0.00 | 89 | 1010.8 |
| 20260509051016 | 68 | 254 | 1.0 | 3.0 | 0.00 | 0.11 | 0.00 | 89 | 1010.8 |
| 20260509050516 | 68 | 256 | 1.0 | 3.0 | 0.00 | 0.11 | 0.00 | 88 | 1011.1 |
| 20260509050040 | 68 | 0 | 0.0 | 0.0 | 0.00 | 0.11 | 0.00 | 88 | 1011.6 |
| 20260509045516 | 69 | 0 | 0.0 | 2.0 | 0.00 | 0.11 | 0.11 | 88 | 1011.7 |
| 20260509045018 | 69 | 0 | 0.0 | 8.0 | 0.00 | 0.11 | 0.11 | 88 | 1012.0 |
| 20260509044534 | 69 | 0 | 1.0 | 9.0 | 0.00 | 0.11 | 0.11 | 89 | 1012.1 |
| 20260509044015 | 69 | 0 | 3.0 | 9.0 | 0.00 | 0.11 | 0.11 | 89 | 1012.4 |
| 20260509043517 | 69 | 304 | 3.0 | 9.0 | 0.00 | 0.11 | 0.11 | 89 | 1012.2 |
| 20260509043035 | 68 | 291 | 5.0 | 9.0 | 0.00 | 0.11 | 0.11 | 89 | 1012.2 |
| 20260509042519 | 69 | 298 | 2.0 | 4.0 | 0.00 | 0.11 | 0.11 | 88 | 1011.5 |
| 20260509042016 | 69 | 0 | 0.0 | 2.0 | 0.00 | 0.11 | 0.11 | 87 | 1010.8 |
| 20260509041535 | 69 | 0 | 0.0 | 3.0 | 0.00 | 0.11 | 0.11 | 87 | 1010.6 |
| 20260509041017 | 69 | 71 | 0.0 | 4.0 | 0.00 | 0.11 | 0.11 | 87 | 1010.6 |
| 20260509040519 | 69 | 0 | 0.0 | 6.0 | 0.00 | 0.11 | 0.11 | 87 | 1010.2 |
| 20260509040046 | 69 | 71 | 2.0 | 6.0 | 0.00 | 0.11 | 0.11 | 87 | 1010.1 |
| 20260509035516 | 69 | 74 | 3.0 | 6.0 | 0.00 | 0.11 | 0.11 | 87 | 1009.9 |
| 20260509035016 | 69 | 64 | 2.0 | 8.0 | 0.00 | 0.11 | 0.11 | 87 | 1009.8 |
| 20260509034535 | 69 | 101 | 2.0 | 8.0 | 0.00 | 0.11 | 0.11 | 87 | 1009.7 |
| 20260509034017 | 69 | 91 | 4.0 | 9.0 | 0.00 | 0.11 | 0.11 | 86 | 1009.8 |
| 20260509033516 | 69 | 71 | 4.0 | 9.0 | 0.00 | 0.11 | 0.11 | 86 | 1009.7 |
| 20260509033035 | 69 | 78 | 4.0 | 9.0 | 0.00 | 0.11 | 0.11 | 87 | 1009.7 |
| 20260509032516 | 69 | 73 | 3.0 | 8.0 | 0.00 | 0.11 | 0.11 | 87 | 1009.8 |
| 20260509032018 | 69 | 57 | 2.0 | 6.0 | 0.00 | 0.11 | 0.11 | 86 | 1009.9 |
| 20260509031543 | 69 | 57 | 2.0 | 8.0 | 0.00 | 0.11 | 0.11 | 87 | 1009.9 |
| 20260509031017 | 69 | 63 | 2.0 | 9.0 | 0.00 | 0.11 | 0.11 | 87 | 1009.9 |
| 20260509030521 | 69 | 19 | 3.0 | 9.0 | 0.00 | 0.11 | 0.11 | 87 | 1009.9 |
| 20260509030042 | 69 | 19 | 4.0 | 9.0 | 0.00 | 0.11 | 0.11 | 87 | 1010.2 |
| 20260509025518 | 69 | 350 | 4.0 | 10.0 | 0.00 | 0.11 | 0.11 | 87 | 1010.3 |
| 20260509025020 | 69 | 355 | 4.0 | 10.0 | 0.00 | 0.11 | 0.11 | 87 | 1010.4 |
| 20260509024537 | 69 | 329 | 3.0 | 8.0 | 0.00 | 0.11 | 0.11 | 87 | 1010.2 |
| 20260509024019 | 69 | 315 | 3.0 | 6.0 | 0.00 | 0.11 | 0.11 | 86 | 1009.9 |
| 20260509023519 | 69 | 355 | 1.0 | 3.0 | 0.00 | 0.11 | 0.11 | 85 | 1009.5 |
| 20260509023045 | 70 | 58 | 1.0 | 6.0 | 0.00 | 0.11 | 0.11 | 85 | 1009.2 |
| 20260509022523 | 70 | 59 | 1.0 | 8.0 | 0.00 | 0.11 | 0.11 | 85 | 1009.0 |
| 20260509022019 | 70 | 61 | 3.0 | 9.0 | 0.00 | 0.11 | 0.11 | 85 | 1008.5 |
| 20260509021541 | 70 | 74 | 5.0 | 9.0 | 0.00 | 0.11 | 0.11 | 86 | 1008.2 |
| 20260509021018 | 70 | 78 | 4.0 | 10.0 | 0.00 | 0.11 | 0.11 | 86 | 1008.1 |
| 20260509020520 | 70 | 69 | 4.0 | 10.0 | 0.00 | 0.11 | 0.11 | 85 | 1007.8 |
| 20260509020045 | 70 | 68 | 3.0 | 9.0 | 0.00 | 0.11 | 0.11 | 85 | 1007.9 |
| 20260509015519 | 70 | 81 | 2.0 | 8.0 | 0.00 | 0.11 | 0.11 | 85 | 1008.0 |
| 20260509015019 | 70 | 93 | 2.0 | 9.0 | 0.00 | 0.11 | 0.11 | 84 | 1007.9 |
| 20260509014538 | 70 | 84 | 3.0 | 9.0 | 0.00 | 0.11 | 0.11 | 84 | 1007.8 |
| 20260509014018 | 70 | 77 | 3.0 | 8.0 | 0.00 | 0.11 | 0.11 | 84 | 1007.8 |
| 20260509013518 | 70 | 80 | 1.0 | 8.0 | 0.00 | 0.11 | 0.11 | 83 | 1007.7 |
| 20260509013052 | 71 | 0 | 0.0 | 1.0 | 0.00 | 0.11 | 0.11 | 82 | 1007.8 |
| 20260509012518 | 71 | 0 | 0.0 | 0.0 | 0.00 | 0.11 | 0.11 | 82 | 1007.9 |
| 20260509012026 | 71 | 0 | 0.0 | 0.0 | 0.00 | 0.11 | 0.11 | 81 | 1007.9 |
| 20260509011539 | 72 | 0 | 0.0 | 0.0 | 0.00 | 0.11 | 0.11 | 81 | 1008.1 |
| 20260509011020 | 72 | 0 | 0.0 | 0.0 | 0.00 | 0.11 | 0.11 | 81 | 1008.2 |
| 20260509010519 | 72 | 0 | 0.0 | 0.0 | 0.00 | 0.11 | 0.11 | 80 | 1008.2 |
| 20260509010035 | 72 | 0 | 0.0 | 0.0 | 0.00 | 0.11 | 0.11 | 80 | 1008.3 |
| 20260509005521 | 72 | 0 | 0.0 | 0.0 | 0.00 | 0.11 | 0.11 | 80 | 1008.5 |
| 20260509005019 | 72 | 0 | 0.0 | 4.0 | 0.00 | 0.11 | 0.11 | 80 | 1008.4 |
| 20260509004541 | 73 | 0 | 0.0 | 6.0 | 0.00 | 0.11 | 0.11 | 79 | 1008.4 |
| 20260509004019 | 73 | 143 | 2.0 | 7.0 | 0.00 | 0.11 | 0.11 | 79 | 1008.3 |
| 20260509003519 | 73 | 111 | 1.0 | 7.0 | 0.00 | 0.11 | 0.11 | 78 | 1008.2 |
| 20260509003054 | 73 | 148 | 2.0 | 6.0 | 0.00 | 0.11 | 0.11 | 78 | 1008.1 |
| 20260509002518 | 73 | 146 | 1.0 | 5.0 | 0.00 | 0.11 | 0.11 | 78 | 1008.0 |
| 20260509002018 | 74 | 146 | 2.0 | 6.0 | 0.00 | 0.11 | 0.11 | 77 | 1008.1 |
| 20260509001534 | 74 | 0 | 1.0 | 8.0 | 0.00 | 0.11 | 0.11 | 77 | 1008.0 |
| 20260509001019 | 74 | 134 | 2.0 | 9.0 | 0.00 | 0.11 | 0.11 | 77 | 1007.9 |
| 20260509000524 | 74 | 121 | 2.0 | 9.0 | 0.00 | 0.11 | 0.11 | 77 | 1007.8 |
| 20260509000044 | 74 | 154 | 3.0 | 9.0 | 0.00 | 0.11 | 0.11 | 76 | 1007.8 |
| 20260508235519 | 74 | 102 | 2.0 | 7.0 | 0.00 | 0.11 | 0.11 | 76 | 1007.8 |
| 20260508235018 | 74 | 140 | 2.0 | 7.0 | 0.00 | 0.11 | 0.11 | 76 | 1007.9 |
| 20260508234535 | 75 | 105 | 1.0 | 8.0 | 0.00 | 0.11 | 0.11 | 76 | 1007.9 |
| 20260508234020 | 75 | 142 | 2.0 | 11.0 | 0.00 | 0.11 | 0.11 | 75 | 1008.0 |
| 20260508233519 | 75 | 151 | 3.0 | 11.0 | 0.00 | 0.11 | 0.11 | 75 | 1008.1 |
| 20260508233036 | 75 | 84 | 2.0 | 11.0 | 0.00 | 0.11 | 0.11 | 75 | 1008.1 |
| 20260508232519 | 75 | 86 | 2.0 | 10.0 | 0.00 | 0.11 | 0.11 | 74 | 1008.1 |
| 20260508232019 | 75 | 150 | 2.0 | 10.0 | 0.00 | 0.11 | 0.11 | 74 | 1008.2 |
| 20260508231539 | 75 | 139 | 3.0 | 10.0 | 0.00 | 0.11 | 0.11 | 73 | 1008.2 |
| 20260508231017 | 75 | 104 | 3.0 | 10.0 | 0.00 | 0.11 | 0.11 | 72 | 1008.1 |
| 20260508230518 | 75 | 133 | 3.0 | 8.0 | 0.00 | 0.11 | 0.11 | 72 | 1008.0 |
| 20260508230040 | 76 | 162 | 4.0 | 12.0 | 0.00 | 0.11 | 0.11 | 71 | 1008.1 |
| 20260508225524 | 76 | 80 | 3.0 | 12.0 | 0.00 | 0.11 | 0.11 | 72 | 1008.1 |
| 20260508225018 | 76 | 88 | 1.0 | 10.0 | 0.00 | 0.11 | 0.11 | 72 | 1008.1 |
| 20260508224543 | 76 | 72 | 1.0 | 10.0 | 0.00 | 0.11 | 0.11 | 72 | 1008.1 |
| 20260508224017 | 76 | 74 | 3.0 | 10.0 | 0.00 | 0.11 | 0.11 | 72 | 1008.1 |
| 20260508223524 | 76 | 101 | 2.0 | 13.0 | 0.00 | 0.11 | 0.11 | 72 | 1008.2 |
| 20260508223042 | 76 | 88 | 6.0 | 13.0 | 0.00 | 0.11 | 0.11 | 73 | 1008.3 |
| 20260508222519 | 76 | 81 | 6.0 | 12.0 | 0.00 | 0.11 | 0.11 | 72 | 1008.3 |
| 20260508222020 | 76 | 75 | 4.0 | 10.0 | 0.00 | 0.11 | 0.11 | 71 | 1008.3 |
| 20260508221536 | 76 | 123 | 2.0 | 10.0 | 0.00 | 0.11 | 0.11 | 71 | 1008.2 |
| 20260508221017 | 76 | 138 | 2.0 | 10.0 | 0.00 | 0.11 | 0.11 | 71 | 1008.4 |
| 20260508220521 | 76 | 151 | 4.0 | 10.0 | 0.00 | 0.11 | 0.11 | 70 | 1008.3 |
| 20260508220035 | 76 | 136 | 3.0 | 7.0 | 0.00 | 0.11 | 0.11 | 71 | 1008.4 |
| 20260508215516 | 76 | 117 | 1.0 | 8.0 | 0.00 | 0.11 | 0.11 | 71 | 1008.4 |
| 20260508215020 | 77 | 123 | 3.0 | 8.0 | 0.00 | 0.11 | 0.11 | 70 | 1008.4 |
| 20260508214541 | 77 | 101 | 2.0 | 8.0 | 0.00 | 0.11 | 0.11 | 72 | 1008.4 |
| 20260508214017 | 77 | 142 | 2.0 | 9.0 | 0.00 | 0.11 | 0.11 | 72 | 1008.5 |
| 20260508213518 | 76 | 167 | 3.0 | 10.0 | 0.00 | 0.11 | 0.11 | 72 | 1008.5 |
| 20260508213041 | 76 | 92 | 3.0 | 10.0 | 0.00 | 0.11 | 0.11 | 72 | 1008.6 |
| 20260508212520 | 76 | 132 | 4.0 | 11.0 | 0.00 | 0.11 | 0.11 | 72 | 1008.6 |
| 20260508212018 | 76 | 87 | 5.0 | 11.0 | 0.00 | 0.11 | 0.11 | 71 | 1008.6 |
| 20260508211537 | 76 | 128 | 3.0 | 9.0 | 0.00 | 0.11 | 0.11 | 71 | 1008.5 |
| 20260508211023 | 76 | 115 | 3.0 | 11.0 | 0.00 | 0.11 | 0.11 | 71 | 1008.6 |
| 20260508210519 | 76 | 118 | 4.0 | 13.0 | 0.00 | 0.11 | 0.11 | 73 | 1008.7 |
| 20260508210036 | 76 | 98 | 5.0 | 13.0 | 0.00 | 0.11 | 0.11 | 72 | 1008.7 |
| 20260508205518 | 76 | 115 | 4.0 | 13.0 | 0.00 | 0.11 | 0.11 | 71 | 1008.6 |
| 20260508205020 | 76 | 70 | 3.0 | 12.0 | 0.00 | 0.11 | 0.11 | 71 | 1008.8 |
| 20260508204536 | 75 | 77 | 6.0 | 15.0 | 0.00 | 0.11 | 0.11 | 71 | 1008.9 |
| 20260508204017 | 75 | 150 | 4.0 | 15.0 | 0.00 | 0.11 | 0.11 | 71 | 1009.3 |
| 20260508203517 | 74 | 83 | 4.0 | 12.0 | 0.00 | 0.11 | 0.11 | 72 | 1009.3 |
| 20260508203037 | 74 | 119 | 6.0 | 11.0 | 0.00 | 0.11 | 0.11 | 71 | 1009.7 |
| 20260508202518 | 74 | 134 | 6.0 | 12.0 | 0.00 | 0.11 | 0.11 | 71 | 1010.0 |
| 20260508202017 | 74 | 95 | 6.0 | 12.0 | 0.00 | 0.11 | 0.11 | 70 | 1010.1 |
| 20260508201541 | 74 | 111 | 6.0 | 12.0 | 0.00 | 0.11 | 0.11 | 71 | 1010.1 |
| 20260508201019 | 74 | 141 | 4.0 | 10.0 | 0.00 | 0.11 | 0.11 | 72 | 1010.4 |
| 20260508200517 | 74 | 161 | 5.0 | 12.0 | 0.00 | 0.11 | 0.11 | 71 | 1010.6 |
| 20260508200052 | 74 | 143 | 2.0 | 12.0 | 0.00 | 0.11 | 0.11 | 72 | 1010.6 |
| 20260508195519 | 74 | 146 | 7.0 | 12.0 | 0.00 | 0.11 | 0.11 | 71 | 1010.7 |
| 20260508195019 | 75 | 153 | 5.0 | 10.0 | 0.00 | 0.11 | 0.11 | 70 | 1010.7 |
| 20260508194536 | 76 | 153 | 5.0 | 10.0 | 0.00 | 0.11 | 0.11 | 70 | 1010.7 |
| 20260508194017 | 76 | 144 | 4.0 | 11.0 | 0.00 | 0.11 | 0.11 | 72 | 1010.7 |
| 20260508193519 | 76 | 148 | 6.0 | 11.0 | 0.00 | 0.11 | 0.11 | 70 | 1010.6 |
| 20260508193037 | 76 | 123 | 4.0 | 10.0 | 0.00 | 0.11 | 0.11 | 72 | 1010.8 |
| 20260508192519 | 76 | 143 | 4.0 | 10.0 | 0.00 | 0.11 | 0.11 | 70 | 1010.8 |
| 20260508192020 | 76 | 99 | 3.0 | 10.0 | 0.00 | 0.11 | 0.11 | 71 | 1010.9 |
| 20260508191541 | 76 | 139 | 3.0 | 10.0 | 0.00 | 0.11 | 0.11 | 71 | 1010.8 |
| 20260508191017 | 76 | 148 | 4.0 | 10.0 | 0.00 | 0.11 | 0.11 | 71 | 1010.9 |
| 20260508190518 | 75 | 159 | 3.0 | 8.0 | 0.00 | 0.11 | 0.11 | 71 | 1010.8 |
| 20260508190046 | 75 | 146 | 3.0 | 8.0 | 0.00 | 0.11 | 0.11 | 71 | 1010.9 |
| 20260508185517 | 75 | 154 | 2.0 | 8.0 | 0.00 | 0.11 | 0.11 | 71 | 1010.9 |
| 20260508185017 | 76 | 143 | 3.0 | 8.0 | 0.00 | 0.11 | 0.11 | 69 | 1011.0 |
| 20260508184545 | 76 | 98 | 3.0 | 8.0 | 0.00 | 0.11 | 0.11 | 71 | 1011.1 |
| 20260508184017 | 76 | 62 | 2.0 | 9.0 | 0.00 | 0.11 | 0.11 | 74 | 1011.1 |
| 20260508183519 | 76 | 146 | 3.0 | 9.0 | 0.00 | 0.11 | 0.11 | 74 | 1011.2 |
| 20260508183041 | 76 | 137 | 3.0 | 9.0 | 0.00 | 0.11 | 0.11 | 72 | 1011.2 |
| 20260508182517 | 76 | 152 | 3.0 | 9.0 | 0.00 | 0.11 | 0.11 | 73 | 1011.1 |
| 20260508182019 | 76 | 101 | 1.0 | 6.0 | 0.00 | 0.11 | 0.11 | 73 | 1011.2 |
| 20260508181536 | 75 | 150 | 2.0 | 9.0 | 0.00 | 0.11 | 0.11 | 73 | 1011.4 |
| 20260508181022 | 75 | 134 | 2.0 | 9.0 | 0.00 | 0.11 | 0.11 | 73 | 1011.5 |
| 20260508180518 | 75 | 150 | 4.0 | 9.0 | 0.00 | 0.11 | 0.11 | 73 | 1011.6 |
| 20260508180036 | 75 | 75 | 3.0 | 8.0 | 0.00 | 0.11 | 0.11 | 74 | 1011.6 |
| 20260508175520 | 74 | 125 | 3.0 | 8.0 | 0.00 | 0.11 | 0.11 | 74 | 1011.7 |
| 20260508175018 | 74 | 150 | 3.0 | 8.0 | 0.00 | 0.11 | 0.11 | 73 | 1011.9 |
| 20260508174557 | 74 | 130 | 3.0 | 7.0 | 0.00 | 0.11 | 0.11 | 73 | 1012.0 |
| 20260508174022 | 74 | 153 | 3.0 | 7.0 | 0.00 | 0.11 | 0.11 | 74 | 1012.0 |
| 20260508173518 | 73 | 156 | 2.0 | 7.0 | 0.00 | 0.11 | 0.11 | 73 | 1012.1 |
| 20260508173034 | 73 | 136 | 2.0 | 7.0 | 0.00 | 0.11 | 0.11 | 73 | 1012.2 |
| 20260508172517 | 73 | 161 | 3.0 | 7.0 | 0.00 | 0.11 | 0.11 | 75 | 1012.3 |
| 20260508172017 | 72 | 166 | 2.0 | 7.0 | 0.00 | 0.11 | 0.11 | 74 | 1012.3 |
| 20260508171540 | 72 | 129 | 2.0 | 8.0 | 0.00 | 0.11 | 0.11 | 78 | 1012.4 |
| 20260508171027 | 71 | 92 | 4.0 | 10.0 | 0.00 | 0.11 | 0.11 | 74 | 1012.4 |
| 20260508170517 | 72 | 147 | 4.0 | 10.0 | 0.00 | 0.11 | 0.11 | 75 | 1012.5 |
| 20260508170038 | 71 | 75 | 1.0 | 9.0 | 0.00 | 0.11 | 0.11 | 76 | 1012.7 |
| 20260508165517 | 71 | 161 | 2.0 | 9.0 | 0.00 | 0.11 | 0.11 | 75 | 1012.8 |
| 20260508165017 | 70 | 158 | 2.0 | 9.0 | 0.00 | 0.11 | 0.11 | 76 | 1012.8 |
| 20260508164547 | 69 | 79 | 1.0 | 11.0 | 0.00 | 0.11 | 0.11 | 77 | 1013.0 |
| 20260508164019 | 69 | 66 | 7.0 | 11.0 | 0.00 | 0.11 | 0.11 | 76 | 1013.1 |
| 20260508163519 | 69 | 91 | 3.0 | 10.0 | 0.00 | 0.11 | 0.11 | 78 | 1013.2 |
| 20260508163059 | 68 | 77 | 4.0 | 10.0 | 0.00 | 0.11 | 0.11 | 78 | 1013.2 |
| 20260508162518 | 68 | 119 | 3.0 | 10.0 | 0.00 | 0.11 | 0.11 | 76 | 1013.3 |
| 20260508162018 | 68 | 157 | 3.0 | 10.0 | 0.00 | 0.11 | 0.11 | 75 | 1013.2 |
| 20260508161540 | 69 | 92 | 2.0 | 8.0 | 0.00 | 0.11 | 0.11 | 76 | 1013.4 |
| 20260508161017 | 68 | 0 | 2.0 | 7.0 | 0.00 | 0.11 | 0.11 | 78 | 1013.5 |
| 20260508160520 | 67 | 76 | 2.0 | 7.0 | 0.00 | 0.11 | 0.11 | 76 | 1013.5 |
| 20260508160041 | 67 | 0 | 1.0 | 8.0 | 0.00 | 0.11 | 0.11 | 77 | 1013.6 |
| 20260508155517 | 67 | 144 | 3.0 | 11.0 | 0.00 | 0.11 | 0.11 | 74 | 1013.6 |
| 20260508155017 | 67 | 78 | 5.0 | 11.0 | 0.00 | 0.11 | 0.11 | 77 | 1013.7 |
| 20260508154535 | 67 | 0 | 3.0 | 8.0 | 0.00 | 0.11 | 0.11 | 77 | 1013.8 |
| 20260508154017 | 66 | 138 | 1.0 | 8.0 | 0.00 | 0.11 | 0.11 | 78 | 1013.8 |
| 20260508153518 | 66 | 144 | 3.0 | 10.0 | 0.00 | 0.11 | 0.11 | 76 | 1014.0 |
| 20260508153041 | 66 | 155 | 3.0 | 10.0 | 0.00 | 0.11 | 0.11 | 78 | 1013.9 |
| 20260508152517 | 66 | 153 | 1.0 | 7.0 | 0.00 | 0.11 | 0.11 | 78 | 1014.1 |
| 20260508152017 | 66 | 81 | 2.0 | 8.0 | 0.00 | 0.11 | 0.11 | 81 | 1014.1 |
| 20260508151542 | 65 | 145 | 2.0 | 8.0 | 0.00 | 0.11 | 0.11 | 79 | 1014.1 |
| 20260508151024 | 65 | 88 | 1.0 | 6.0 | 0.00 | 0.11 | 0.11 | 81 | 1014.1 |
| 20260508150522 | 65 | 155 | 2.0 | 6.0 | 0.00 | 0.11 | 0.11 | 80 | 1014.1 |
| 20260508150041 | 65 | 0 | 1.0 | 8.0 | 0.00 | 0.11 | 0.11 | 81 | 1014.2 |
| 20260508145518 | 65 | 74 | 0.0 | 8.0 | 0.00 | 0.11 | 0.11 | 81 | 1014.2 |
| 20260508145017 | 65 | 77 | 1.0 | 8.0 | 0.00 | 0.11 | 0.11 | 80 | 1014.3 |
| 20260508144539 | 66 | 84 | 1.0 | 9.0 | 0.00 | 0.11 | 0.11 | 80 | 1014.4 |
| 20260508144017 | 66 | 88 | 3.0 | 9.0 | 0.00 | 0.11 | 0.11 | 80 | 1014.3 |
| 20260508143517 | 65 | 84 | 4.0 | 12.0 | 0.00 | 0.11 | 0.11 | 80 | 1014.5 |
| 20260508143034 | 65 | 137 | 6.0 | 12.0 | 0.00 | 0.11 | 0.11 | 82 | 1014.3 |
| 20260508142517 | 64 | 85 | 4.0 | 8.0 | 0.00 | 0.11 | 0.11 | 84 | 1014.4 |
| 20260508142019 | 64 | 144 | 0.0 | 6.0 | 0.00 | 0.11 | 0.11 | 84 | 1014.4 |
| 20260508141535 | 64 | 66 | 1.0 | 6.0 | 0.00 | 0.11 | 0.11 | 85 | 1014.3 |
| 20260508141017 | 63 | 83 | 2.0 | 6.0 | 0.00 | 0.11 | 0.11 | 84 | 1014.3 |
| 20260508140518 | 63 | 80 | 3.0 | 5.0 | 0.00 | 0.11 | 0.11 | 84 | 1014.5 |
| 20260508140041 | 63 | 80 | 1.0 | 4.0 | 0.00 | 0.11 | 0.11 | 86 | 1014.6 |
| 20260508135518 | 63 | 0 | 1.0 | 8.0 | 0.00 | 0.11 | 0.11 | 84 | 1014.7 |
| 20260508135017 | 63 | 71 | 2.0 | 8.0 | 0.00 | 0.11 | 0.11 | 84 | 1014.8 |
| 20260508134544 | 63 | 0 | 0.0 | 4.0 | 0.00 | 0.11 | 0.11 | 85 | 1014.8 |
| 20260508134017 | 63 | 0 | 0.0 | 4.0 | 0.00 | 0.11 | 0.11 | 88 | 1014.7 |
| 20260508133523 | 62 | 74 | 0.0 | 5.0 | 0.00 | 0.11 | 0.11 | 88 | 1014.6 |
| 20260508133045 | 62 | 73 | 1.0 | 6.0 | 0.00 | 0.11 | 0.11 | 88 | 1014.5 |
| 20260508132517 | 61 | 72 | 3.0 | 7.0 | 0.00 | 0.11 | 0.11 | 89 | 1014.6 |
| 20260508132017 | 61 | 0 | 2.0 | 8.0 | 0.00 | 0.11 | 0.11 | 90 | 1014.5 |
| 20260508131543 | 61 | 63 | 2.0 | 8.0 | 0.00 | 0.11 | 0.11 | 90 | 1014.5 |
| 20260508131018 | 60 | 72 | 3.0 | 8.0 | 0.00 | 0.11 | 0.11 | 91 | 1014.5 |
| 20260508130517 | 60 | 100 | 1.0 | 3.0 | 0.00 | 0.11 | 0.11 | 92 | 1014.3 |
| 20260508130040 | 60 | 0 | 0.0 | 3.0 | 0.00 | 0.11 | 0.11 | 92 | 1014.4 |
| 20260508125518 | 60 | 0 | 0.0 | 7.0 | 0.00 | 0.11 | 0.11 | 92 | 1014.5 |
| 20260508125019 | 60 | 0 | 1.0 | 7.0 | 0.00 | 0.11 | 0.11 | 92 | 1014.4 |
| 20260508124540 | 60 | 81 | 2.0 | 6.0 | 0.00 | 0.11 | 0.11 | 92 | 1014.1 |
| 20260508124018 | 60 | 163 | 0.0 | 6.0 | 0.00 | 0.11 | 0.11 | 92 | 1014.4 |
| 20260508123517 | 60 | 95 | 2.0 | 6.0 | 0.00 | 0.11 | 0.11 | 91 | 1014.2 |
| 20260508123037 | 60 | 0 | 0.0 | 7.0 | 0.00 | 0.11 | 0.11 | 92 | 1014.3 |
| 20260508122517 | 59 | 0 | 2.0 | 7.0 | 0.00 | 0.11 | 0.11 | 92 | 1014.3 |
| 20260508122017 | 59 | 82 | 2.0 | 5.0 | 0.00 | 0.11 | 0.11 | 92 | 1014.2 |
| 20260508121541 | 59 | 75 | 2.0 | 5.0 | 0.00 | 0.11 | 0.11 | 92 | 1014.3 |
| 20260508121019 | 59 | 73 | 1.0 | 8.0 | 0.00 | 0.11 | 0.11 | 91 | 1014.4 |
| 20260508120517 | 59 | 74 | 2.0 | 8.0 | 0.00 | 0.11 | 0.11 | 91 | 1014.5 |
| 20260508120039 | 59 | 82 | 4.0 | 8.0 | 0.00 | 0.11 | 0.11 | 91 | 1014.4 |
| 20260508115518 | 59 | 74 | 0.0 | 4.0 | 0.00 | 0.11 | 0.11 | 92 | 1014.6 |
| 20260508115018 | 59 | 73 | 0.0 | 1.0 | 0.04 | 0.11 | 0.11 | 91 | 1014.7 |
| 20260508114534 | 59 | 0 | 0.0 | 0.0 | 0.11 | 0.11 | 0.11 | 91 | 1014.8 |
| 20260508114021 | 59 | 0 | 0.0 | 0.0 | 0.11 | 0.11 | 0.11 | 91 | 1014.7 |
| 20260508113519 | 59 | 0 | 0.0 | 0.0 | 0.11 | 0.11 | 0.11 | 91 | 1014.8 |
| 20260508113051 | 59 | 0 | 0.0 | 0.0 | 0.11 | 0.11 | 0.11 | 91 | 1014.8 |
| 20260508112517 | 59 | 0 | 0.0 | 0.0 | 0.11 | 0.11 | 0.11 | 90 | 1014.5 |
| 20260508112019 | 59 | 0 | 0.0 | 0.0 | 0.11 | 0.11 | 0.11 | 90 | 1014.3 |
| 20260508111540 | 59 | 0 | 0.0 | 1.0 | 0.11 | 0.11 | 0.11 | 90 | 1014.2 |
| 20260508111017 | 59 | 0 | 0.0 | 8.0 | 0.11 | 0.11 | 0.11 | 89 | 1014.4 |
| 20260508110517 | 59 | 74 | 0.0 | 8.0 | 0.11 | 0.11 | 0.11 | 89 | 1014.3 |
| 20260508110053 | 59 | 61 | 3.0 | 8.0 | 0.11 | 0.11 | 0.11 | 88 | 1013.9 |
| 20260508105519 | 60 | 97 | 1.0 | 4.0 | 0.10 | 0.10 | 0.10 | 87 | 1014.0 |
| 20260508105019 | 60 | 130 | 0.0 | 3.0 | 0.07 | 0.07 | 0.07 | 86 | 1014.4 |
| 20260508104536 | 60 | 130 | 1.0 | 3.0 | 0.00 | 0.00 | 0.00 | 86 | 1014.5 |
| 20260508104018 | 60 | 0 | 0.0 | 3.0 | 0.00 | 0.00 | 0.00 | 86 | 1014.0 |
| 20260508103518 | 60 | 128 | 1.0 | 3.0 | 0.00 | 0.00 | 0.00 | 85 | 1013.9 |
| 20260508103038 | 60 | 0 | 0.0 | 3.0 | 0.00 | 0.00 | 0.00 | 85 | 1013.9 |
| 20260508102518 | 60 | 0 | 0.0 | 3.0 | 0.00 | 0.00 | 0.00 | 85 | 1014.0 |
| 20260508102018 | 60 | 144 | 0.0 | 5.0 | 0.00 | 0.00 | 0.00 | 85 | 1014.1 |
| 20260508101550 | 60 | 0 | 1.0 | 5.0 | 0.00 | 0.00 | 0.00 | 85 | 1014.2 |
| 20260508101017 | 60 | 0 | 0.0 | 0.0 | 0.00 | 0.00 | 0.00 | 85 | 1014.0 |
| 20260508100517 | 60 | 0 | 0.0 | 0.0 | 0.00 | 0.00 | 0.00 | 85 | 1013.9 |
| 20260508100041 | 60 | 0 | 0.0 | 0.0 | 0.00 | 0.00 | 0.00 | 85 | 1014.0 |
| 20260508095517 | 60 | 0 | 0.0 | 0.0 | 0.00 | 0.00 | 0.00 | 85 | 1014.1 |
| 20260508095018 | 60 | 0 | 0.0 | 0.0 | 0.00 | 0.00 | 0.00 | 84 | 1014.3 |
| 20260508094550 | 61 | 0 | 0.0 | 0.0 | 0.00 | 0.00 | 0.00 | 84 | 1014.3 |
| 20260508094019 | 61 | 0 | 0.0 | 0.0 | 0.00 | 0.00 | 0.00 | 83 | 1014.1 |
| 20260508093519 | 60 | 0 | 0.0 | 0.0 | 0.00 | 0.00 | 0.00 | 84 | 1013.8 |
| 20260508093050 | 60 | 0 | 0.0 | 0.0 | 0.00 | 0.00 | 0.00 | 84 | 1013.7 |
| 20260508092517 | 60 | 0 | 0.0 | 0.0 | 0.00 | 0.00 | 0.00 | 85 | 1013.6 |
| 20260508092017 | 60 | 0 | 0.0 | 0.0 | 0.00 | 0.00 | 0.00 | 85 | 1013.8 |
| 20260508091534 | 60 | 0 | 0.0 | 3.0 | 0.00 | 0.00 | 0.00 | 85 | 1013.5 |
| 20260508091019 | 60 | 0 | 0.0 | 3.0 | 0.00 | 0.00 | 0.00 | 85 | 1013.5 |
| 20260508090518 | 60 | 0 | 0.0 | 3.0 | 0.00 | 0.00 | 0.00 | 85 | 1013.7 |